Regional Weather Roundup
Issued by NWS Newport/Morehead, NC

Current Version | Previous Version | Graphics & Text | Print | Product List | Glossary On
Versions: 1 2 3 4 5 6 7 8 9 10 11 12 13 14 15 16 17 18 19 20 21 22 23 24 25 26 27 28 29 30 31 32 33 34 35 36 37 38 39 40 41 42 43 44 45 46 47 48 49 50
000 ASUS42 KMHX 262226 RWRMHX WEATHER ROUNDUP FOR EASTERN NORTH CAROLINA NATIONAL WEATHER SERVICE NEWPORT/MOREHEAD CITY NC 600 PM EDT THU APR 26 2018 NOTE: "FAIR" INDICATES FEW OR NO CLOUDS BELOW 12,000 FEET WITH NO SIGNIFICANT WEATHER AND/OR OBSTRUCTIONS TO VISIBILITY NCZ015>017-031-032-045>047-102-103-262300- NORTH COAST CITY SKY/WX TMP DP RH WIND PRES REMARKS EDENTON FAIR 64 56 75 E9 29.87S ELIZABETH CITY FAIR 65 54 67 SE13 29.88S KITTY HAWK FAIR 57 49 76 CALM 29.88S MANTEO FAIR 58 47 66 E7 29.90S $$ NCZ045>047-081-094-103-104-262300- CENTRAL COAST CITY SKY/WX TMP DP RH WIND PRES REMARKS FRISCO FAIR 69 61 75 E7 29.88F $$ NCZ095-097-098-100-101-262300- SOUTHERN COAST CITY SKY/WX TMP DP RH WIND PRES REMARKS BEAUFORT FAIR 73 63 70 S9 29.86S CEDAR ISLAND NOT AVBL JACKSONVILLE FAIR 73 59 61 S12 29.83F PINEY ISLAND NOT AVBL WILMINGTON FAIR 74 55 51 S14 29.83F $$ NCZ011>013-027>030-043-044-078>080-089-090>093-098-262300- COASTAL PLAIN CITY SKY/WX TMP DP RH WIND PRES REMARKS AHOSKIE PTSUNNY 69 60 73 SE7 29.85R CLINTON FAIR 74 61 64 CALM 29.81F ELIZABETHTOWN FAIR 74 55 51 MISG 29.81F GOLDSBORO PTSUNNY 74 58 56 S6 29.80F GREENVILLE PTSUNNY 73 59 60 SE10 29.85S HAVELOCK PTSUNNY 75 63 66 S17 29.86S KENANSVILLE PTSUNNY 73 57 56 S5 29.82S KINSTON PTSUNNY 73 57 56 SE8 29.83S NEW BERN FAIR 73 59 61 S8 29.85S RICHLANDS FAIR 73 57 57 S10 29.83F ROCKY MOUNT PTSUNNY 74 57 55 CALM 29.83S WASHINGTON FAIR 70 61 73 CALM 29.84S WHITEVILLE FAIR 72 55 54 S9 29.82S $$ AMZ130-135-150-152-154-156-158-170-250-252-270-ANZ085-086-088-633-658-670-262300- MARINE OBSERVATIONS STATION/POSITION TIME TEMP WIND PRES WAVE SWELL AIR SEA DIR/SP/G HT/PER HT/PER (UTC) (F) (DEG/KT/KT) (MB) (FT/S) (FT/S) CHESAPEAKE LIGHT NOT AVBL 64 E VA BEACH 2150 56 56 80/ 4/ 6 1013.0 7/10 7/10 DUCK 2200 57 54 110/ 7/ 8 1011.6 2 E DUCK 2200 56 N/A 4/10 2/11 OREGON INLET 2200 58 64 60/ 6/ 9 1011.9 13E OREGON INLT 2148 56 N/A 5/ 9 5/ 9 HATTERAS CG 2200 67 69 110/ 5/ 9 1011.4 DIAMOND BUOY 2210 72 71 170/ 10/ 14 1011.9 CAPE LOOKOUT 2200 160/ 6/ 8 1011.3 BEAUFORT LAB 2200 70 65 170/ 7/ 10 1011.1 30 SE NEW RVR IN 2208 71 69 230/ 6/ 8 1008.0 30 SE NEW RVR IN 2200 69 N/A 4/ 9 2/11 27 SE WRIGHTSVLE 2208 69 68 210/ 6/ 8 1010.9 5 SE WRIGHTSVLE 2108 68 66 190/ 6/ 8 1010.3 225 S CAPE HAT 2210 73 74 210/ 10/ 12 1013.1 41 SE CHARLESTON 2210 70 230/ 8/ 10 1010.7 $$

USA.gov is the U.S. government's official web portal to all federal, state and local government web resources and services.